Time,TemperatureF,DewpointF,PressureIn,WindDirection,WindDirectionDegrees,WindSpeedMPH,WindSpeedGustMPH,Humidity,HourlyPrecipIn,Conditions,Clouds,dailyrainin,SoftwareType,DateUTC
2013-03-17 09:45:00,41.6,40.3,29.34,ENE,60,7.0,7.0,95,0.00,,,0.00,Wunderground v.1.15,2013-03-17 14:45:00,
2013-03-17 09:50:00,41.6,40.3,29.35,NE,55,8.0,8.0,95,0.00,,,0.00,Wunderground v.1.15,2013-03-17 14:50:00,
2013-03-17 10:00:00,41.7,40.4,29.35,NE,56,5.0,5.0,95,0.00,,,0.00,Wunderground v.1.15,2013-03-17 15:00:00,
2013-03-17 10:10:00,41.7,40.6,29.35,NNE,32,4.0,4.0,96,0.00,,,0.00,Wunderground v.1.15,2013-03-17 15:10:00,
2013-03-17 10:20:00,41.9,40.8,29.35,NNW,346,4.0,4.0,96,0.00,,,0.00,Wunderground v.1.15,2013-03-17 15:20:00,
2013-03-17 10:30:00,41.9,40.8,29.34,ENE,71,5.0,9.0,96,0.00,,,0.00,Wunderground v.1.15,2013-03-17 15:30:00,
2013-03-17 10:40:00,42.1,41.0,29.33,North,5,6.0,6.0,96,0.00,,,0.00,Wunderground v.1.15,2013-03-17 15:40:00,
2013-03-17 10:45:00,42.2,41.1,29.33,NE,46,5.0,16.0,96,0.00,,,0.00,Wunderground v.1.15,2013-03-17 15:45:00,
2013-03-17 10:50:00,42.2,41.1,29.33,NE,51,5.0,16.0,96,0.00,,,0.00,Wunderground v.1.15,2013-03-17 15:50:00,
2013-03-17 11:00:00,42.3,41.2,29.33,NNE,32,4.0,16.0,96,0.00,,,0.00,Wunderground v.1.15,2013-03-17 16:00:00,
2013-03-17 11:10:00,42.5,41.4,29.33,NNE,32,4.0,16.0,96,0.00,,,0.00,Wunderground v.1.15,2013-03-17 16:10:00,
2013-03-17 11:20:00,42.7,41.6,29.32,ENE,58,4.0,4.0,96,0.00,,,0.00,Wunderground v.1.15,2013-03-17 16:20:00,
2013-03-17 11:30:00,42.9,41.8,29.33,NNW,341,3.0,16.0,96,0.00,,,0.00,Wunderground v.1.15,2013-03-17 16:30:00,
2013-03-17 11:40:00,42.9,41.8,29.33,WNW,290,3.0,3.0,96,0.00,,,0.00,Wunderground v.1.15,2013-03-17 16:40:00,
2013-03-17 11:50:00,43.1,42.0,29.32,NNE,33,3.0,16.0,96,0.00,,,0.00,Wunderground v.1.15,2013-03-17 16:50:00,
2013-03-17 12:01:00,43.2,42.1,29.32,ENE,68,4.0,4.0,96,0.00,,,0.00,Wunderground v.1.15,2013-03-17 17:01:00,
2013-03-17 12:10:00,43.4,42.1,29.32,ENE,63,4.0,16.0,95,0.00,,,0.00,Wunderground v.1.15,2013-03-17 17:10:00,
2013-03-17 12:15:00,43.4,42.1,29.31,NNE,33,5.0,16.0,95,0.00,,,0.00,Wunderground v.1.15,2013-03-17 17:15:00,
2013-03-17 12:25:00,43.7,42.4,29.31,NNE,25,4.0,16.0,95,0.00,,,0.00,Wunderground v.1.15,2013-03-17 17:25:00,
2013-03-17 12:35:00,43.8,42.5,29.30,ENE,58,5.0,16.0,95,0.00,,,0.00,Wunderground v.1.15,2013-03-17 17:35:00,
2013-03-17 12:45:00,43.9,42.6,29.30,NE,55,5.0,5.0,95,0.00,,,0.00,Wunderground v.1.15,2013-03-17 17:45:00,
2013-03-17 12:55:00,44.1,42.8,29.30,NNW,328,4.0,16.0,95,0.00,,,0.00,Wunderground v.1.15,2013-03-17 17:55:00,
2013-03-17 13:00:00,44.2,42.9,29.30,North,349,4.0,4.0,95,0.00,,,0.00,Wunderground v.1.15,2013-03-17 18:00:00,
2013-03-17 13:10:00,44.3,43.0,29.30,NW,308,2.0,16.0,95,0.00,,,0.00,Wunderground v.1.15,2013-03-17 18:10:00,
2013-03-17 13:20:00,44.1,42.8,29.30,NNW,331,4.0,4.0,95,0.00,,,0.00,Wunderground v.1.15,2013-03-17 18:20:00,
2013-03-17 13:30:00,44.3,43.0,29.30,NNW,328,3.0,3.0,95,0.00,,,0.00,Wunderground v.1.15,2013-03-17 18:30:00,
2013-03-17 13:40:00,44.3,43.0,29.29,NW,316,3.0,16.0,95,0.00,,,0.00,Wunderground v.1.15,2013-03-17 18:40:00,
2013-03-17 13:50:00,44.4,43.1,29.28,NNE,26,3.0,3.0,95,0.00,,,0.00,Wunderground v.1.15,2013-03-17 18:50:00,
2013-03-17 14:00:00,44.3,43.0,29.28,NNE,30,3.0,3.0,95,0.00,,,0.00,Wunderground v.1.15,2013-03-17 19:00:00,
2013-03-17 14:10:00,44.3,43.0,29.28,NNW,332,4.0,4.0,95,0.00,,,0.00,Wunderground v.1.15,2013-03-17 19:10:00,
2013-03-17 14:15:00,44.3,43.0,29.28,WNW,290,4.0,7.0,95,0.00,,,0.00,Wunderground v.1.15,2013-03-17 19:15:00,
2013-03-17 14:25:00,44.5,42.9,29.27,North,350,4.0,5.0,94,0.00,,,0.00,Wunderground v.1.15,2013-03-17 19:25:00,
2013-03-17 14:35:00,44.4,43.1,29.27,WNW,289,3.0,16.0,95,0.00,,,0.00,Wunderground v.1.15,2013-03-17 19:35:00,
2013-03-17 14:45:00,44.5,42.9,29.26,WNW,294,4.0,16.0,94,0.00,,,0.00,Wunderground v.1.15,2013-03-17 19:45:00,
2013-03-17 14:50:00,44.6,43.3,29.27,WNW,297,4.0,16.0,95,0.00,,,0.00,Wunderground v.1.15,2013-03-17 19:50:00,
2013-03-17 15:05:00,44.5,42.9,29.26,WNW,300,4.0,16.0,94,0.00,,,0.00,Wunderground v.1.15,2013-03-17 20:05:00,
2013-03-17 15:15:00,44.5,43.2,29.25,NW,316,4.0,16.0,95,0.00,,,0.00,Wunderground v.1.15,2013-03-17 20:15:00,
2013-03-17 15:20:00,44.5,43.2,29.26,WNW,293,4.0,16.0,95,0.00,,,0.00,Wunderground v.1.15,2013-03-17 20:20:00,
2013-03-17 15:30:00,44.6,43.3,29.25,WNW,288,3.0,16.0,95,0.00,,,0.00,Wunderground v.1.15,2013-03-17 20:30:00,
2013-03-17 15:40:00,44.6,43.3,29.26,WNW,302,3.0,16.0,95,0.00,,,0.00,Wunderground v.1.15,2013-03-17 20:40:00,
2013-03-17 15:50:00,44.7,43.4,29.25,NW,315,3.0,16.0,95,0.00,,,0.00,Wunderground v.1.15,2013-03-17 20:50:00,
2013-03-17 15:55:00,44.8,43.7,29.24,WNW,300,2.0,2.0,96,0.00,,,0.00,Wunderground v.1.15,2013-03-17 20:55:00,
2013-03-17 16:05:00,44.9,43.6,29.24,WNW,295,2.0,2.0,95,0.00,,,0.00,Wunderground v.1.15,2013-03-17 21:05:00,
2013-03-17 16:15:00,44.9,43.3,29.24,WNW,293,2.0,16.0,94,0.00,,,0.00,Wunderground v.1.15,2013-03-17 21:15:00,
2013-03-17 16:30:00,44.8,42.9,29.24,NW,306,3.0,16.0,93,0.00,,,0.00,Wunderground v.1.15,2013-03-17 21:30:00,
2013-03-17 16:40:00,44.5,42.6,29.24,WNW,300,4.0,16.0,93,0.00,,,0.00,Wunderground v.1.15,2013-03-17 21:40:00,
2013-03-17 16:50:00,44.6,42.7,29.24,WNW,297,4.0,16.0,93,0.00,,,0.00,Wunderground v.1.15,2013-03-17 21:50:00,
2013-03-17 17:05:00,44.6,42.7,29.23,WNW,289,4.0,16.0,93,0.00,,,0.00,Wunderground v.1.15,2013-03-17 22:05:00,
2013-03-17 17:15:00,44.5,42.6,29.23,WNW,291,4.0,4.0,93,0.00,,,0.00,Wunderground v.1.15,2013-03-17 22:15:00,
2013-03-17 17:25:00,44.7,42.5,29.23,WNW,289,3.0,3.0,92,0.00,,,0.00,Wunderground v.1.15,2013-03-17 22:25:00,
2013-03-17 17:35:00,44.7,42.5,29.23,West,273,3.0,3.0,92,0.00,,,0.00,Wunderground v.1.15,2013-03-17 22:35:00,
2013-03-17 17:45:00,44.6,42.4,29.23,NW,320,3.0,16.0,92,0.00,,,0.00,Wunderground v.1.15,2013-03-17 22:45:00,
2013-03-17 17:55:00,44.8,42.6,29.23,WNW,300,1.0,16.0,92,0.00,,,0.00,Wunderground v.1.15,2013-03-17 22:55:00,
2013-03-17 18:00:00,44.8,42.6,29.24,WNW,300,2.0,16.0,92,0.00,,,0.00,Wunderground v.1.15,2013-03-17 23:00:00,
2013-03-17 18:10:00,44.6,42.4,29.24,NW,315,2.0,2.0,92,0.00,,,0.00,Wunderground v.1.15,2013-03-17 23:10:00,
2013-03-17 18:20:00,44.6,42.4,29.25,NW,311,3.0,16.0,92,0.00,,,0.00,Wunderground v.1.15,2013-03-17 23:20:00,
2013-03-17 18:30:00,44.6,42.4,29.25,NNW,335,3.0,16.0,92,0.00,,,0.00,Wunderground v.1.15,2013-03-17 23:30:00,
2013-03-17 18:40:00,44.4,42.2,29.24,NW,307,2.0,16.0,92,0.00,,,0.00,Wunderground v.1.15,2013-03-17 23:40:00,
2013-03-17 18:50:00,44.2,42.0,29.24,NW,316,2.0,16.0,92,0.00,,,0.00,Wunderground v.1.15,2013-03-17 23:50:00,
2013-03-17 19:00:00,44.2,42.0,29.24,WNW,294,2.0,16.0,92,0.00,,,0.00,Wunderground v.1.15,2013-03-18 00:00:00,
2013-03-17 19:10:00,44.3,42.1,29.24,WNW,302,1.0,16.0,92,0.00,,,0.00,Wunderground v.1.15,2013-03-18 00:10:00,
2013-03-17 19:20:00,44.3,42.4,29.25,WNW,288,2.0,16.0,93,0.00,,,0.00,Wunderground v.1.15,2013-03-18 00:20:00,
2013-03-17 19:30:00,44.3,42.1,29.25,WNW,300,2.0,16.0,92,0.00,,,0.00,Wunderground v.1.15,2013-03-18 00:30:00,
2013-03-17 19:45:00,44.2,42.0,29.23,NW,316,0.0,16.0,92,0.00,,,0.00,Wunderground v.1.15,2013-03-18 00:45:00,
2013-03-17 19:55:00,44.0,42.1,29.23,WNW,290,1.0,2.0,93,0.00,,,0.00,Wunderground v.1.15,2013-03-18 00:55:00,
2013-03-17 20:01:00,44.0,42.1,29.24,WNW,290,0.0,16.0,93,0.00,,,0.00,Wunderground v.1.15,2013-03-18 01:01:00,
2013-03-17 20:10:00,44.0,42.1,29.24,WNW,296,0.0,16.0,93,0.00,,,0.00,Wunderground v.1.15,2013-03-18 01:10:00,
2013-03-17 20:20:00,44.1,41.9,29.24,WNW,301,1.0,16.0,92,0.00,,,0.00,Wunderground v.1.15,2013-03-18 01:20:00,
2013-03-17 20:30:00,44.2,42.0,29.25,WNW,283,1.0,16.0,92,0.00,,,0.00,Wunderground v.1.15,2013-03-18 01:30:00,
2013-03-17 20:40:00,44.1,42.2,29.24,West,259,1.0,16.0,93,0.00,,,0.00,Wunderground v.1.15,2013-03-18 01:40:00,
2013-03-17 20:50:00,44.4,42.5,29.25,WNW,297,1.0,16.0,93,0.00,,,0.00,Wunderground v.1.15,2013-03-18 01:50:00,
2013-03-17 21:10:00,44.5,42.3,29.26,West,279,1.0,16.0,92,0.00,,,0.00,Wunderground v.1.15,2013-03-18 02:10:00,
2013-03-17 21:20:00,44.5,42.3,29.27,West,281,2.0,16.0,92,0.00,,,0.00,Wunderground v.1.15,2013-03-18 02:20:00,
2013-03-17 21:25:00,44.4,42.2,29.27,West,277,2.0,2.0,92,0.00,,,0.00,Wunderground v.1.15,2013-03-18 02:25:00,
2013-03-17 21:35:00,44.3,42.1,29.26,WNW,285,1.0,16.0,92,0.00,,,0.00,Wunderground v.1.15,2013-03-18 02:35:00,
2013-03-17 21:45:00,44.3,42.1,29.26,West,274,1.0,1.0,92,0.00,,,0.00,Wunderground v.1.15,2013-03-18 02:45:00,
2013-03-17 21:55:00,44.2,42.0,29.26,WSW,242,2.0,16.0,92,0.00,,,0.00,Wunderground v.1.15,2013-03-18 02:55:00,
2013-03-17 22:05:00,44.2,42.0,29.26,WSW,250,1.0,16.0,92,0.00,,,0.00,Wunderground v.1.15,2013-03-18 03:05:00,
2013-03-17 22:15:00,44.2,42.0,29.26,WSW,245,2.0,2.0,92,0.00,,,0.00,Wunderground v.1.15,2013-03-18 03:15:00,
2013-03-17 22:25:00,44.3,42.1,29.28,West,262,2.0,2.0,92,0.00,,,0.00,Wunderground v.1.15,2013-03-18 03:25:00,
2013-03-17 22:35:00,44.3,42.1,29.27,WSW,256,3.0,16.0,92,0.00,,,0.00,Wunderground v.1.15,2013-03-18 03:35:00,
2013-03-17 22:45:00,44.3,42.1,29.27,West,262,4.0,16.0,92,0.00,,,0.00,Wunderground v.1.15,2013-03-18 03:45:00,
2013-03-17 22:55:00,44.3,42.1,29.28,West,267,3.0,3.0,92,0.00,,,0.00,Wunderground v.1.15,2013-03-18 03:55:00,
2013-03-17 23:05:00,44.1,42.2,29.27,West,271,3.0,3.0,93,0.00,,,0.00,Wunderground v.1.15,2013-03-18 04:05:00,
2013-03-17 23:15:00,43.9,42.0,29.27,West,264,1.0,16.0,93,0.00,,,0.00,Wunderground v.1.15,2013-03-18 04:15:00,
2013-03-17 23:20:00,43.9,42.3,29.27,West,278,1.0,16.0,94,0.00,,,0.00,Wunderground v.1.15,2013-03-18 04:20:00,
2013-03-17 23:25:00,44.0,42.4,29.26,WNW,289,1.0,16.0,94,0.00,,,0.00,Wunderground v.1.15,2013-03-18 04:25:00,
2013-03-17 23:30:00,43.9,42.3,29.27,West,269,1.0,16.0,94,0.00,,,0.00,Wunderground v.1.15,2013-03-18 04:30:00,
2013-03-17 23:35:00,43.9,42.3,29.28,WNW,287,2.0,2.0,94,0.00,,,0.00,Wunderground v.1.15,2013-03-18 04:35:00,
2013-03-17 23:45:00,43.9,42.0,29.27,WNW,287,2.0,2.0,93,0.00,,,0.00,Wunderground v.1.15,2013-03-18 04:45:00,
2013-03-17 23:55:00,43.8,42.2,29.26,WNW,287,0.0,16.0,94,0.00,,,0.00,Wunderground v.1.15,2013-03-18 04:55:00,